| time (UTC) | temp F | wind direction | speed MPH | gust MPH | rain 1hr in | rain 24hr in | rain mn in | humidity % | barometer mb |
| 20260508041505 | 57 | 87 | 0.0 | 0.0 | 0.00 | 0.00 | 0.00 | 67 | 1016.3 |
| 20260508040004 | 58 | 87 | 0.0 | 0.0 | 0.00 | 0.00 | 0.00 | 66 | 1016.3 |
| 20260508034504 | 59 | 87 | 0.0 | 0.0 | 0.00 | 0.00 | 0.00 | 63 | 1016.2 |
| 20260508033005 | 60 | 87 | 0.0 | 0.0 | 0.00 | 0.00 | 0.00 | 61 | 1016.1 |
| 20260508031505 | 61 | 87 | 0.0 | 0.0 | 0.00 | 0.00 | 0.00 | 61 | 1016.1 |
| 20260508030007 | 61 | 87 | 0.0 | 0.0 | 0.00 | 0.00 | 0.00 | 58 | 1016.1 |
| 20260508024506 | 62 | 87 | 0.0 | 1.0 | 0.00 | 0.00 | 0.00 | 56 | 1016.2 |
| 20260508021504 | 62 | 87 | 0.0 | 1.0 | 0.00 | 0.00 | 0.00 | 54 | 1016.2 |
| 20260508020006 | 63 | 87 | 0.0 | 3.0 | 0.00 | 0.00 | 0.00 | 54 | 1016.4 |
| 20260508014504 | 63 | 94 | 0.0 | 2.0 | 0.00 | 0.00 | 0.00 | 54 | 1016.4 |
| 20260508013004 | 63 | 94 | 0.0 | 2.0 | 0.00 | 0.00 | 0.00 | 54 | 1016.4 |
| 20260508011505 | 63 | 87 | 0.0 | 2.0 | 0.00 | 0.00 | 0.00 | 54 | 1016.7 |
| 20260508010005 | 64 | 100 | 0.0 | 2.0 | 0.00 | 0.00 | 0.00 | 54 | 1016.8 |
| 20260508004502 | 64 | 100 | 0.0 | 4.0 | 0.00 | 0.00 | 0.00 | 54 | 1016.8 |
| 20260508003002 | 64 | 92 | 0.0 | 3.0 | 0.00 | 0.00 | 0.00 | 54 | 1016.8 |
| 20260508001502 | 64 | 99 | 0.0 | 2.0 | 0.00 | 0.00 | 0.00 | 53 | 1017.0 |
| 20260508000004 | 64 | 88 | 0.0 | 2.0 | 0.00 | 0.00 | 0.00 | 54 | 1017.0 |
| 20260507233002 | 63 | 164 | 1.0 | 4.0 | 0.00 | 0.00 | 0.00 | 54 | 1017.1 |
| 20260507230007 | 62 | 92 | 0.0 | 3.0 | 0.00 | 0.00 | 0.00 | 56 | 1017.4 |
| 20260507224505 | 62 | 158 | 0.0 | 2.0 | 0.00 | 0.00 | 0.00 | 57 | 1017.5 |
| 20260507223005 | 62 | 25 | 1.0 | 2.0 | 0.00 | 0.00 | 0.00 | 56 | 1017.6 |
| 20260507221504 | 62 | 80 | 0.0 | 2.0 | 0.00 | 0.00 | 0.00 | 57 | 1017.9 |
| 20260507220008 | 62 | 80 | 1.0 | 5.0 | 0.00 | 0.00 | 0.00 | 57 | 1017.9 |
| 20260507213002 | 61 | 99 | 0.0 | 3.0 | 0.00 | 0.00 | 0.00 | 57 | 1018.4 |
| 20260507211502 | 61 | 359 | 0.0 | 3.0 | 0.00 | 0.00 | 0.00 | 58 | 1018.4 |
| 20260507210005 | 61 | 84 | 1.0 | 4.0 | 0.00 | 0.00 | 0.00 | 59 | 1018.6 |
| 20260507203004 | 59 | 139 | 0.0 | 2.0 | 0.00 | 0.00 | 0.00 | 59 | 1018.9 |
| 20260507201503 | 59 | 137 | 1.0 | 4.0 | 0.00 | 0.00 | 0.00 | 61 | 1019.0 |
| 20260507200004 | 58 | 103 | 0.0 | 2.0 | 0.00 | 0.00 | 0.00 | 61 | 1019.2 |
| 20260507194506 | 58 | 169 | 0.0 | 2.0 | 0.00 | 0.00 | 0.00 | 63 | 1019.1 |
| 20260507191504 | 57 | 165 | 0.0 | 2.0 | 0.00 | 0.00 | 0.00 | 63 | 1019.4 |
| 20260507190006 | 57 | 118 | 0.0 | 2.0 | 0.00 | 0.00 | 0.00 | 64 | 1019.5 |
| 20260507184504 | 57 | 161 | 0.0 | 2.0 | 0.00 | 0.00 | 0.00 | 65 | 1019.6 |
| 20260507183001 | 57 | 92 | 0.0 | 2.0 | 0.00 | 0.00 | 0.00 | 65 | 1019.7 |
| 20260507181502 | 56 | 84 | 0.0 | 2.0 | 0.00 | 0.00 | 0.00 | 66 | 1019.8 |
| 20260507180005 | 56 | 87 | 0.0 | 1.0 | 0.00 | 0.00 | 0.00 | 67 | 1019.9 |
| 20260507174504 | 56 | 87 | 0.0 | 2.0 | 0.00 | 0.00 | 0.00 | 66 | 1020.0 |
| 20260507173005 | 56 | 118 | 0.0 | 2.0 | 0.00 | 0.00 | 0.00 | 66 | 1019.9 |
| 20260507171503 | 55 | 175 | 0.0 | 2.0 | 0.00 | 0.00 | 0.00 | 67 | 1019.9 |
| 20260507170005 | 55 | 79 | 0.0 | 2.0 | 0.00 | 0.00 | 0.00 | 65 | 1019.9 |
| 20260507164503 | 54 | 79 | 0.0 | 2.0 | 0.00 | 0.00 | 0.00 | 71 | 1019.9 |
| 20260507161504 | 52 | 79 | 0.0 | 2.0 | 0.00 | 0.00 | 0.00 | 75 | 1020.0 |
| 20260507160005 | 52 | 152 | 0.0 | 2.0 | 0.00 | 0.00 | 0.00 | 75 | 1019.9 |
| 20260507154502 | 51 | 214 | 0.0 | 4.0 | 0.00 | 0.00 | 0.00 | 76 | 1020.1 |
| 20260507153002 | 51 | 25 | 0.0 | 2.0 | 0.00 | 0.00 | 0.00 | 78 | 1020.2 |
| 20260507151502 | 51 | 25 | 0.0 | 0.0 | 0.00 | 0.00 | 0.00 | 79 | 1020.4 |
| 20260507150005 | 50 | 25 | 0.0 | 2.0 | 0.00 | 0.00 | 0.00 | 79 | 1020.4 |
| 20260507144503 | 50 | 25 | 0.0 | 0.0 | 0.00 | 0.00 | 0.00 | 80 | 1020.4 |
| 20260507143003 | 49 | 25 | 0.0 | 0.0 | 0.00 | 0.00 | 0.00 | 80 | 1020.4 |
| 20260507140006 | 49 | 25 | 0.0 | 0.0 | 0.00 | 0.00 | 0.00 | 80 | 1020.3 |
| 20260507134502 | 49 | 25 | 0.0 | 0.0 | 0.00 | 0.00 | 0.00 | 81 | 1020.2 |
| 20260507133005 | 48 | 25 | 0.0 | 0.0 | 0.00 | 0.00 | 0.00 | 82 | 1020.1 |
| 20260507131503 | 48 | 25 | 0.0 | 0.0 | 0.00 | 0.00 | 0.00 | 82 | 1020.0 |
| 20260507130005 | 48 | 25 | 0.0 | 0.0 | 0.00 | 0.00 | 0.00 | 81 | 1020.1 |
| 20260507124502 | 49 | 25 | 0.0 | 0.0 | 0.00 | 0.00 | 0.00 | 81 | 1020.1 |
| 20260507123002 | 49 | 25 | 0.0 | 0.0 | 0.00 | 0.00 | 0.00 | 81 | 1020.2 |
| 20260507121501 | 49 | 25 | 0.0 | 0.0 | 0.00 | 0.00 | 0.00 | 80 | 1020.2 |
| 20260507120002 | 49 | 25 | 0.0 | 0.0 | 0.00 | 0.00 | 0.00 | 79 | 1020.4 |
| 20260507114501 | 50 | 25 | 0.0 | 0.0 | 0.00 | 0.00 | 0.00 | 78 | 1020.6 |
| 20260507113002 | 50 | 25 | 0.0 | 0.0 | 0.00 | 0.00 | 0.00 | 77 | 1020.6 |
| 20260507110001 | 51 | 25 | 0.0 | 0.0 | 0.00 | 0.00 | 0.00 | 77 | 1020.7 |
| 20260507104502 | 51 | 25 | 0.0 | 0.0 | 0.00 | 0.00 | 0.00 | 76 | 1020.6 |
| 20260507103002 | 51 | 25 | 0.0 | 0.0 | 0.00 | 0.00 | 0.00 | 76 | 1020.7 |
| 20260507101502 | 51 | 25 | 0.0 | 0.0 | 0.00 | 0.00 | 0.00 | 76 | 1020.7 |
| 20260507100002 | 51 | 25 | 0.0 | 2.0 | 0.00 | 0.00 | 0.00 | 76 | 1020.7 |
| 20260507093002 | 51 | 25 | 0.0 | 0.0 | 0.00 | 0.00 | 0.00 | 77 | 1020.6 |
| 20260507091502 | 51 | 25 | 0.0 | 0.0 | 0.00 | 0.00 | 0.00 | 77 | 1020.6 |
| 20260507090002 | 52 | 25 | 0.0 | 0.0 | 0.00 | 0.00 | 0.00 | 76 | 1020.7 |
| 20260507084501 | 52 | 25 | 0.0 | 0.0 | 0.00 | 0.00 | 0.00 | 76 | 1020.7 |
| 20260507083002 | 53 | 25 | 0.0 | 0.0 | 0.00 | 0.00 | 0.00 | 76 | 1020.7 |
| 20260507081501 | 53 | 25 | 0.0 | 0.0 | 0.00 | 0.00 | 0.00 | 77 | 1020.7 |
| 20260507080005 | 53 | 25 | 0.0 | 0.0 | 0.00 | 0.00 | 0.00 | 78 | 1020.8 |
| 20260507070009 | 53 | 25 | 0.0 | 0.0 | 0.00 | 0.00 | 0.00 | 77 | 1020.7 |
| 20260507064504 | 53 | 25 | 0.0 | 0.0 | 0.00 | 0.00 | 0.00 | 78 | 1020.6 |
| 20260507063005 | 53 | 25 | 0.0 | 0.0 | 0.00 | 0.00 | 0.00 | 78 | 1020.6 |
| 20260507060005 | 54 | 25 | 0.0 | 0.0 | 0.00 | 0.00 | 0.00 | 78 | 1020.7 |
| 20260507054504 | 54 | 25 | 0.0 | 0.0 | 0.00 | 0.00 | 0.00 | 77 | 1020.7 |
| 20260507053005 | 54 | 25 | 0.0 | 0.0 | 0.00 | 0.00 | 0.00 | 77 | 1020.7 |
| 20260507051506 | 55 | 25 | 0.0 | 0.0 | 0.00 | 0.00 | 0.00 | 76 | 1020.7 |
| 20260507050006 | 55 | 25 | 0.0 | 0.0 | 0.00 | 0.00 | 0.00 | 77 | 1020.6 |
| 20260507043004 | 55 | 25 | 0.0 | 0.0 | 0.00 | 0.00 | 0.00 | 77 | 1020.6 |